Time,TemperatureF,DewpointF,PressureIn,WindDirection,WindDirectionDegrees,WindSpeedMPH,WindSpeedGustMPH,Humidity,HourlyPrecipIn,Conditions,Clouds,dailyrainin,SolarRadiationWatts/m^2,SoftwareType,DateUTC
2013-03-12 00:03:00,58.0,46.0,-100.00,SE,130,7.0,13.0,65,0.00,,,0.00,0.000000,,2013-03-12 04:03:00,
2013-03-12 00:13:00,58.0,46.0,-100.00,SE,130,7.0,13.0,65,0.00,,,0.00,0.000000,,2013-03-12 04:13:00,
2013-03-12 00:22:00,58.0,46.0,-100.00,SE,130,7.0,13.0,65,0.00,,,0.00,0.000000,,2013-03-12 04:22:00,
2013-03-12 00:52:00,59.0,47.0,-100.00,SE,131,8.0,15.0,65,0.00,,,0.00,0.000000,,2013-03-12 04:52:00,
2013-03-12 01:03:00,59.0,47.0,-100.00,SE,131,8.0,15.0,65,0.00,,,0.00,0.000000,,2013-03-12 05:03:00,
2013-03-12 01:12:00,59.0,47.0,-100.00,SE,131,8.0,15.0,65,0.00,,,0.00,0.000000,,2013-03-12 05:12:00,
2013-03-12 01:22:00,59.0,47.0,-100.00,SE,131,8.0,15.0,65,0.00,,,0.00,0.000000,,2013-03-12 05:22:00,
2013-03-12 01:52:00,58.0,47.0,-100.00,ESE,122,6.0,16.0,67,0.00,,,0.00,0.000000,,2013-03-12 05:52:00,
2013-03-12 02:02:00,58.0,47.0,-100.00,ESE,122,6.0,16.0,67,0.00,,,0.00,0.000000,,2013-03-12 06:02:00,
2013-03-12 02:12:00,58.0,47.0,-100.00,ESE,122,6.0,16.0,67,0.00,,,0.00,0.000000,,2013-03-12 06:12:00,
2013-03-12 02:22:00,58.0,47.0,-100.00,ESE,122,6.0,16.0,67,0.00,,,0.00,0.000000,,2013-03-12 06:22:00,
2013-03-12 02:52:00,58.0,46.0,-100.00,SE,138,5.0,14.0,65,0.00,,,0.00,0.000000,,2013-03-12 06:52:00,
2013-03-12 03:02:00,58.0,46.0,-100.00,SE,138,5.0,14.0,65,0.00,,,0.00,0.000000,,2013-03-12 07:02:00,
2013-03-12 03:12:00,58.0,46.0,-100.00,SE,138,5.0,14.0,65,0.00,,,0.00,0.000000,,2013-03-12 07:12:00,
2013-03-12 03:22:00,58.0,46.0,-100.00,SE,138,5.0,14.0,65,0.00,,,0.00,0.000000,,2013-03-12 07:22:00,
2013-03-12 03:53:00,59.0,47.0,-100.00,SE,140,5.0,12.0,65,0.00,,,0.00,0.000000,,2013-03-12 07:53:00,
2013-03-12 04:02:00,59.0,47.0,-100.00,SE,140,5.0,12.0,65,0.00,,,0.00,0.000000,,2013-03-12 08:02:00,
2013-03-12 04:13:00,59.0,47.0,-100.00,SE,140,5.0,12.0,65,0.00,,,0.00,0.000000,,2013-03-12 08:13:00,
2013-03-12 04:22:00,59.0,47.0,-100.00,SE,140,5.0,12.0,65,0.00,,,0.00,0.000000,,2013-03-12 08:22:00,
2013-03-12 04:52:00,59.0,48.0,-100.00,SE,129,6.0,15.0,66,0.00,,,0.00,0.000000,,2013-03-12 08:52:00,
2013-03-12 05:03:00,59.0,48.0,-100.00,SE,129,6.0,15.0,66,0.00,,,0.00,0.000000,,2013-03-12 09:03:00,
2013-03-12 05:12:00,59.0,48.0,-100.00,SE,129,6.0,15.0,66,0.00,,,0.00,0.000000,,2013-03-12 09:12:00,
2013-03-12 05:22:00,59.0,48.0,-100.00,SE,129,6.0,15.0,66,0.00,,,0.00,0.000000,,2013-03-12 09:22:00,
2013-03-12 05:53:00,59.0,48.0,-100.00,ESE,123,6.0,12.0,68,0.00,,,0.00,0.000000,,2013-03-12 09:53:00,
2013-03-12 06:02:00,59.0,48.0,-100.00,ESE,123,6.0,12.0,68,0.00,,,0.00,0.000000,,2013-03-12 10:02:00,
2013-03-12 06:12:00,59.0,48.0,-100.00,ESE,123,6.0,12.0,68,0.00,,,0.00,0.000000,,2013-03-12 10:12:00,
2013-03-12 06:22:00,59.0,48.0,-100.00,ESE,123,6.0,12.0,68,0.00,,,0.00,0.000000,,2013-03-12 10:22:00,
2013-03-12 06:53:00,59.0,48.0,-100.00,ESE,122,6.0,16.0,68,0.00,,,0.00,0.000000,,2013-03-12 10:53:00,
2013-03-12 07:02:00,59.0,48.0,-100.00,ESE,122,6.0,16.0,68,0.00,,,0.00,0.000000,,2013-03-12 11:02:00,
2013-03-12 07:12:00,59.0,48.0,-100.00,ESE,122,6.0,16.0,68,0.00,,,0.00,0.000000,,2013-03-12 11:12:00,
2013-03-12 07:22:00,59.0,48.0,-100.00,ESE,122,6.0,16.0,68,0.00,,,0.00,0.000000,,2013-03-12 11:22:00,
2013-03-12 07:52:00,60.0,49.0,-100.00,SSE,154,6.0,14.0,68,0.00,,,0.00,0.000000,,2013-03-12 11:52:00,
2013-03-12 08:03:00,60.0,49.0,-100.00,SSE,154,6.0,14.0,68,0.00,,,0.00,0.000000,,2013-03-12 12:03:00,
2013-03-12 08:12:00,60.0,49.0,-100.00,SSE,154,6.0,14.0,68,0.00,,,0.00,0.000000,,2013-03-12 12:12:00,
2013-03-12 08:22:00,60.0,49.0,-100.00,SSE,154,6.0,14.0,68,0.00,,,0.00,0.000000,,2013-03-12 12:22:00,
2013-03-12 08:52:00,58.0,49.0,-100.00,SSE,159,3.0,13.0,72,0.07,,,0.07,6.000000,,2013-03-12 12:52:00,
2013-03-12 09:02:00,58.0,49.0,-100.00,SSE,159,3.0,13.0,72,0.07,,,0.07,6.000000,,2013-03-12 13:02:00,
2013-03-12 09:12:00,58.0,49.0,-100.00,SSE,159,3.0,13.0,72,0.07,,,0.07,6.000000,,2013-03-12 13:12:00,
2013-03-12 09:22:00,58.0,49.0,-100.00,SSE,159,3.0,13.0,72,0.07,,,0.07,6.000000,,2013-03-12 13:22:00,
2013-03-12 09:52:00,60.0,50.0,-100.00,SSE,151,5.0,12.0,70,0.02,,,0.09,33.000000,,2013-03-12 13:52:00,
2013-03-12 10:02:00,60.0,50.0,-100.00,SSE,151,5.0,12.0,70,0.02,,,0.09,33.000000,,2013-03-12 14:02:00,
2013-03-12 10:12:00,60.0,50.0,-100.00,SSE,151,5.0,12.0,70,0.02,,,0.09,33.000000,,2013-03-12 14:12:00,
2013-03-12 10:22:00,60.0,50.0,-100.00,SSE,151,5.0,12.0,70,0.02,,,0.09,33.000000,,2013-03-12 14:22:00,
2013-03-12 10:53:00,60.0,51.0,-100.00,SE,136,7.0,14.0,71,0.03,,,0.12,63.000000,,2013-03-12 14:53:00,
2013-03-12 11:03:00,60.0,51.0,-100.00,SE,136,7.0,14.0,71,0.03,,,0.12,63.000000,,2013-03-12 15:03:00,
2013-03-12 11:13:00,60.0,51.0,-100.00,SE,136,7.0,14.0,71,0.03,,,0.12,63.000000,,2013-03-12 15:13:00,
2013-03-12 11:22:00,60.0,51.0,-100.00,SE,136,7.0,14.0,71,0.03,,,0.12,63.000000,,2013-03-12 15:22:00,
2013-03-12 11:53:00,60.0,51.0,-100.00,South,184,5.0,14.0,71,0.39,,,0.51,60.000000,,2013-03-12 15:53:00,
2013-03-12 12:03:00,60.0,51.0,-100.00,South,184,5.0,14.0,71,0.39,,,0.51,60.000000,,2013-03-12 16:03:00,
2013-03-12 12:12:00,60.0,51.0,-100.00,South,184,5.0,14.0,71,0.39,,,0.51,60.000000,,2013-03-12 16:12:00,
2013-03-12 12:23:00,60.0,51.0,-100.00,South,184,5.0,14.0,71,0.39,,,0.51,60.000000,,2013-03-12 16:23:00,
2013-03-12 12:53:00,60.0,51.0,-100.00,SSE,149,6.0,16.0,72,0.31,,,0.82,47.000000,,2013-03-12 16:53:00,
2013-03-12 13:03:00,60.0,51.0,-100.00,SSE,149,6.0,16.0,72,0.31,,,0.82,47.000000,,2013-03-12 17:03:00,
2013-03-12 13:13:00,60.0,51.0,-100.00,SSE,149,6.0,16.0,72,0.31,,,0.82,47.000000,,2013-03-12 17:13:00,
2013-03-12 13:23:00,60.0,51.0,-100.00,SSE,149,6.0,16.0,72,0.31,,,0.82,47.000000,,2013-03-12 17:23:00,
2013-03-12 13:54:00,61.0,52.0,-100.00,SSW,209,5.0,17.0,72,0.27,,,1.09,58.000000,,2013-03-12 17:54:00,
2013-03-12 14:03:00,61.0,52.0,-100.00,SSW,209,5.0,17.0,72,0.27,,,1.09,58.000000,,2013-03-12 18:03:00,
2013-03-12 14:13:00,61.0,52.0,-100.00,SSW,209,5.0,17.0,72,0.27,,,1.09,58.000000,,2013-03-12 18:13:00,
2013-03-12 14:23:00,61.0,52.0,-100.00,SSW,209,5.0,17.0,72,0.27,,,1.09,58.000000,,2013-03-12 18:23:00,
2013-03-12 14:53:00,61.0,52.0,-100.00,SSW,210,5.0,11.0,72,0.17,,,1.26,81.000000,,2013-03-12 18:53:00,
2013-03-12 15:04:00,61.0,52.0,-100.00,SSW,210,5.0,11.0,72,0.17,,,1.26,81.000000,,2013-03-12 19:04:00,
2013-03-12 15:13:00,61.0,52.0,-100.00,SSW,210,5.0,11.0,72,0.17,,,1.26,81.000000,,2013-03-12 19:13:00,
2013-03-12 15:23:00,61.0,52.0,-100.00,SSW,210,5.0,11.0,72,0.17,,,1.26,81.000000,,2013-03-12 19:23:00,
2013-03-12 15:53:00,62.0,52.0,-100.00,South,174,3.0,12.0,71,0.01,,,1.27,109.000000,,2013-03-12 19:53:00,
2013-03-12 16:02:00,62.0,52.0,-100.00,South,174,3.0,12.0,71,0.01,,,1.27,109.000000,,2013-03-12 20:02:00,
2013-03-12 16:13:00,62.0,52.0,-100.00,South,174,3.0,12.0,71,0.01,,,1.27,109.000000,,2013-03-12 20:13:00,
2013-03-12 16:23:00,62.0,52.0,-100.00,South,174,3.0,12.0,71,0.01,,,1.27,109.000000,,2013-03-12 20:23:00,
2013-03-12 16:53:00,59.0,49.0,-100.00,South,172,4.0,9.0,70,0.02,,,1.29,230.000000,,2013-03-12 20:53:00,
2013-03-12 17:03:00,59.0,49.0,-100.00,South,172,4.0,9.0,70,0.02,,,1.29,230.000000,,2013-03-12 21:03:00,
2013-03-12 17:13:00,59.0,49.0,-100.00,South,172,4.0,9.0,70,0.02,,,1.29,230.000000,,2013-03-12 21:13:00,
2013-03-12 17:23:00,59.0,49.0,-100.00,South,172,4.0,9.0,70,0.02,,,1.29,230.000000,,2013-03-12 21:23:00,
2013-03-12 17:53:00,60.0,51.0,-100.00,South,184,3.0,10.0,71,0.00,,,1.29,193.000000,,2013-03-12 21:53:00,
2013-03-12 18:03:00,60.0,51.0,-100.00,South,184,3.0,10.0,71,0.00,,,1.29,193.000000,,2013-03-12 22:03:00,
2013-03-12 18:13:00,60.0,51.0,-100.00,South,184,3.0,10.0,71,0.00,,,1.29,193.000000,,2013-03-12 22:13:00,
2013-03-12 18:23:00,60.0,51.0,-100.00,South,184,3.0,10.0,71,0.00,,,1.29,193.000000,,2013-03-12 22:23:00,
2013-03-12 18:54:00,60.0,50.0,-100.00,SSW,196,3.0,10.0,70,0.00,,,1.29,159.000000,,2013-03-12 22:54:00,
2013-03-12 19:03:00,60.0,50.0,-100.00,SSW,196,3.0,10.0,70,0.00,,,1.29,159.000000,,2013-03-12 23:03:00,
2013-03-12 19:12:00,60.0,50.0,-100.00,SSW,196,3.0,10.0,70,0.00,,,1.29,159.000000,,2013-03-12 23:12:00,
2013-03-12 19:23:00,60.0,50.0,-100.00,SSW,196,3.0,10.0,70,0.00,,,1.29,159.000000,,2013-03-12 23:23:00,
2013-03-12 19:53:00,58.0,49.0,-100.00,SSE,154,3.0,8.0,71,0.00,,,1.29,31.000000,,2013-03-12 23:53:00,
2013-03-12 20:03:00,58.0,49.0,-100.00,SSE,154,3.0,8.0,71,0.00,,,1.29,31.000000,,2013-03-13 00:03:00,
2013-03-12 20:13:00,58.0,49.0,-100.00,SSE,154,3.0,8.0,71,0.00,,,1.29,31.000000,,2013-03-13 00:13:00,
2013-03-12 20:23:00,58.0,49.0,-100.00,SSE,154,3.0,8.0,71,0.00,,,1.29,31.000000,,2013-03-13 00:23:00,
2013-03-12 20:53:00,58.0,49.0,-100.00,SSW,202,4.0,10.0,71,0.00,,,1.29,0.000000,,2013-03-13 00:53:00,
2013-03-12 21:03:00,58.0,49.0,-100.00,SSW,202,4.0,10.0,71,0.00,,,1.29,0.000000,,2013-03-13 01:03:00,
2013-03-12 21:13:00,58.0,49.0,-100.00,SSW,202,4.0,10.0,71,0.00,,,1.29,0.000000,,2013-03-13 01:13:00,
2013-03-12 21:22:00,58.0,49.0,-100.00,SSW,202,4.0,10.0,71,0.00,,,1.29,0.000000,,2013-03-13 01:22:00,
2013-03-12 21:53:00,56.0,47.0,-100.00,SSW,213,2.0,8.0,72,0.00,,,1.29,0.000000,,2013-03-13 01:53:00,
2013-03-12 22:03:00,56.0,47.0,-100.00,SSW,213,2.0,8.0,72,0.00,,,1.29,0.000000,,2013-03-13 02:03:00,
2013-03-12 22:12:00,56.0,47.0,-100.00,SSW,213,2.0,8.0,72,0.00,,,1.29,0.000000,,2013-03-13 02:12:00,
2013-03-12 22:22:00,56.0,47.0,-100.00,SSW,213,2.0,8.0,72,0.00,,,1.29,0.000000,,2013-03-13 02:22:00,
2013-03-12 22:53:00,55.0,46.0,-100.00,WSW,249,3.0,4.0,72,0.00,,,1.29,0.000000,,2013-03-13 02:53:00,
2013-03-12 23:02:00,55.0,46.0,-100.00,WSW,249,3.0,4.0,72,0.00,,,1.29,0.000000,,2013-03-13 03:02:00,
2013-03-12 23:13:00,55.0,46.0,-100.00,WSW,249,3.0,4.0,72,0.00,,,1.29,0.000000,,2013-03-13 03:13:00,
2013-03-12 23:22:00,55.0,46.0,-100.00,WSW,249,3.0,4.0,72,0.00,,,1.29,0.000000,,2013-03-13 03:22:00,
2013-03-12 23:53:00,56.0,47.0,-100.00,West,265,3.0,9.0,73,0.00,,,1.29,0.000000,,2013-03-13 03:53:00,